AGGH

Honiara International Airport

Honiara, Solomon Islands
Issued Wind Visibility Ceiling Temperature Dew Point Humidity Barometer
Oct-23
05:00 UTC
360°
8 KTS
10,000+ meters   31° C
88° F
26° C
79° F
75% 29.76" Hg
1008 hPa
VFR
Oct-23
04:00 UTC
360°
8 KTS
10,000+ meters   31° C
88° F
25° C
77° F
70% 29.79" Hg
1009 hPa
VFR
Oct-23
03:00 UTC
360°
9 KTS
10,000+ meters   31° C
88° F
25° C
77° F
70% 29.79" Hg
1009 hPa
VFR
Oct-23
02:00 UTC
020°
8 KTS
10,000+ meters   31° C
88° F
26° C
79° F
75% 29.79" Hg
1009 hPa
VFR
Oct-23
01:00 UTC
360°
8 KTS
10,000+ meters   31° C
88° F
26° C
79° F
75% 29.85" Hg
1011 hPa
VFR
Oct-23
00:00 UTC
020°
8 KTS
10,000+ meters   31° C
88° F
24° C
75° F
66% 29.85" Hg
1011 hPa
VFR
Oct-22
23:00 UTC
020°
6 KTS
10,000+ meters   31° C
88° F
25° C
77° F
70% 29.88" Hg
1012 hPa
VFR
Oct-22
22:00 UTC
10,000+ meters   30° C
86° F
25° C
77° F
75% 29.88" Hg
1012 hPa
VFR
Oct-22
21:00 UTC
180°
3 KTS
10,000+ meters   28° C
82° F
25° C
77° F
84% 29.85" Hg
1011 hPa
VFR
Oct-22
20:00 UTC
170°
3 KTS
10,000+ meters   26° C
79° F
24° C
75° F
89% 29.85" Hg
1011 hPa
VFR
Oct-22
19:00 UTC
180°
3 KTS
10,000+ meters   24° C
75° F
23° C
73° F
94% 29.82" Hg
1010 hPa
VFR
Oct-22
18:00 UTC
180°
2 KTS
10,000+ meters   24° C
75° F
23° C
73° F
94% 29.82" Hg
1010 hPa
VFR
Oct-22
17:00 UTC
210°
4 KTS
10,000+ meters   25° C
77° F
24° C
75° F
94% 29.79" Hg
1009 hPa
VFR
Oct-22
16:00 UTC
200°
3 KTS
10,000+ meters Broken
10,000' AGL
25° C
77° F
24° C
75° F
94% 29.82" Hg
1010 hPa
VFR
Oct-22
15:00 UTC
10,000+ meters   25° C
77° F
24° C
75° F
94% 29.82" Hg
1010 hPa
VFR
Oct-22
14:00 UTC
200°
3 KTS
10,000+ meters   25° C
77° F
24° C
75° F
94% 29.85" Hg
1011 hPa
VFR
Oct-22
13:00 UTC
160°
2 KTS
10,000+ meters   24° C
75° F
24° C
75° F
100% 29.85" Hg
1011 hPa
VFR
Oct-22
12:00 UTC
160°
3 KTS
10,000+ meters   24° C
75° F
24° C
75° F
100% 29.85" Hg
1011 hPa
VFR
Oct-22
11:00 UTC
10,000+ meters   25° C
77° F
24° C
75° F
94% 29.85" Hg
1011 hPa
VFR
Oct-22
10:00 UTC
200°
2 KTS
10,000+ meters   25° C
77° F
24° C
75° F
94% 29.82" Hg
1010 hPa
VFR
Oct-22
09:00 UTC
160°
3 KTS
10,000+ meters   25° C
77° F
24° C
75° F
94% 29.79" Hg
1009 hPa
VFR
Oct-22
08:00 UTC
200°
5 KTS
10,000+ meters   26° C
79° F
25° C
77° F
94% 29.79" Hg
1009 hPa
VFR
Oct-22
07:00 UTC
270°
3 KTS
10,000+ meters   29° C
84° F
25° C
77° F
79% 29.76" Hg
1008 hPa
VFR